Location: Trout Lake
(45.9980°N, 121.5270°W)
Time: 19:07:25
(UTC-08:00)

Cosmos 1092 Rocket - Pass Details

Date: 06 December 2023
Orbit: 954 x 994 km, 82.9° (Epoch: 22 February)

Event Time Altitude Azimuth Distance (km) Brightness Sun altitude
Rises 17:19:59 0° 163° (SSE) 3,619 7.1 -9.9°
Reaches altitude 10° 17:22:36 10° 156° (SSE) 2,676 6.3 -10.3°
Maximum altitude 17:28:13 40° 89° (E) 1,377 4.4 -11.2°
Drops below altitude 10° 17:33:53 10° 22° (NNE) 2,696 5.9 -12.2°
Sets 17:36:31 0° 15° (NNE) 3,649 6.7 -12.6°
